Wind_Speed
6 6 4 1 3 4 3 3 1 0 0 2 2 8 8 5 2 2 6 8 5 7 9 12 14 15 14 12 10 8 7 5 7 8 9 9 11 10 9 9 10 11 14 14 13 15 15 12 13
7 6 3 2 4 3 4 4 4 4 3 10 13 6 5 2 3 6 3 2 4 6 7 14 15 15 14 12 11 9 7 6 8 7 9 10 12 9 9 10 11 12 13 13 13 13 12 12 11
8 5 2 4 3 4 4 4 4 1 4 3 5 7 4 2 5 2 1 3 6 8 6 13 14 14 14 13 12 9 8 8 9 9 11 11 11 10 10 12 12 12 12 12 12 11 11 11 13
6 4 2 2 4 5 4 5 5 1 3 6 12 6 5 3 2 3 1 1 6 9 8 11 11 13 14 13 12 10 10 10 11 11 12 11 11 11 12 12 13 12 11 11 11 10 10 11 12
5 1 3 0 3 5 5 6 7 3 3 5 4 5 6 7 5 3 2 2 2 9 9 7 8 11 13 13 12 11 11 10 11 11 13 13 11 11 11 12 12 11 10 12 11 11 12 12 11
0 0 2 2 4 4 5 5 6 3 3 4 6 8 6 9 7 5 4 3 6 5 8 8 7 11 12 12 13 12 12 11 10 10 13 13 12 12 11 10 10 9 10 15 13 13 12 11 10
4 3 3 3 3 5 3 4 3 4 4 2 10 5 7 11 9 7 5 4 5 8 6 8 10 11 11 12 13 13 14 13 10 10 11 14 12 11 11 10 10 9 13 16 17 14 13 14 14
2 3 1 3 2 4 2 2 3 3 2 6 5 5 4 14 10 8 7 6 7 9 9 9 10 10 11 12 14 13 13 15 12 10 10 14 14 13 12 11 11 10 14 16 17 16 17 16 11
1 3 3 3 3 3 1 1 3 2 6 4 4 8 4 14 11 9 8 7 8 10 10 11 10 11 13 14 15 16 16 15 15 13 13 17 18 16 15 13 13 12 14 17 18 18 18 15 11
4 3 6 4 2 3 1 2 3 2 2 3 5 6 12 16 14 11 9 8 8 9 11 10 10 10 13 14 15 17 16 17 18 19 17 18 18 18 17 16 14 14 15 17 18 20 18 14 11
4 5 4 3 1 2 2 2 2 2 4 8 9 11 17 16 14 13 10 11 9 10 10 10 11 12 12 13 15 17 16 19 20 23 21 20 20 19 19 19 18 18 18 20 20 19 15 11 9
2 9 8 6 11 4 4 4 3 10 11 8 11 14 18 17 15 13 12 10 13 12 11 11 9 10 12 15 16 16 18 22 23 26 23 23 23 23 20 19 19 19 18 21 21 18 15 12 9
4 5 12 16 18 16 14 10 9 12 15 10 8 16 20 19 19 16 12 10 13 14 12 10 10 10 10 11 13 16 18 21 23 25 25 29 27 25 20 15 15 19 20 23 23 21 17 15 13
3 7 12 11 14 8 7 8 4 13 10 18 16 18 23 23 21 18 16 16 16 14 13 13 15 14 14 14 14 13 14 18 22 24 28 30 31 27 21 8 17 20 25 26 26 23 20 18 15
6 6 8 9 8 8 11 7 10 31 18 11 14 15 26 25 21 18 17 19 19 18 17 16 15 17 20 20 19 18 16 15 21 25 27 31 33 22 27 23 26 25 24 27 32 25 21 21 20
4 2 4 4 2 5 11 9 9 17 21 23 23 22 27 27 23 22 20 20 21 21 22 22 22 22 22 23 23 21 18 18 17 21 24 30 29 22 24 27 27 29 24 27 31 19 23 23 23
3 4 4 8 4 2 6 6 10 11 19 20 23 23 25 28 26 25 25 23 23 24 24 24 25 25 24 24 23 22 21 19 18 22 26 29 30 26 25 27 27 24 26 22 30 22 23 29 26
5 4 5 5 3 1 4 11 11 16 12 22 20 17 16 28 28 24 24 23 22 20 20 20 20 21 23 25 26 24 23 21 20 25 26 29 32 31 27 25 26 20 20 22 29 26 30 28 27
3 2 5 5 9 4 10 12 11 20 16 19 23 19 18 26 26 23 22 21 18 18 19 20 23 22 21 25 23 25 22 21 22 21 21 24 22 21 28 25 25 20 23 16 18 23 24 33 32
5 4 7 8 8 5 10 14 13 10 12 24 30 32 27 26 26 24 19 14 12 13 16 17 17 13 13 16 18 22 23 22 24 23 18 19 21 26 28 26 24 25 21 23 19 34 31 35 36
6 6 4 8 6 4 6 10 6 6 10 12 19 24 28 33 30 22 15 10 9 9 9 9 9 13 15 17 19 20 20 20 20 21 22 22 19 23 31 32 26 27 25 24 24 37 38 43 41
7 7 11 8 2 4 3 7 5 6 6 1 4 15 28 31 24 18 13 8 6 6 5 4 4 8 10 16 19 21 22 22 22 21 17 18 21 22 24 26 29 30 30 27 25 38 41 44 43
8 6 8 5 4 1 1 2 7 4 6 6 6 16 26 27 22 17 12 8 6 5 2 4 3 3 7 6 10 15 18 19 21 20 16 17 17 20 20 22 20 23 31 31 31 41 46 45 44
1 5 5 4 2 3 8 8 6 4 5 1 5 17 27 25 20 15 11 7 5 1 2 4 3 3 4 8 10 12 14 15 16 16 17 17 16 17 18 18 20 22 25 36 36 41 45 42 41
4 6 1 2 1 6 2 2 10 7 6 6 13 24 26 23 20 16 12 9 7 3 3 2 2 0 4 8 10 9 10 11 14 15 18 20 21 21 20 20 22 26 30 33 34 44 41 41 42
7 7 5 7 4 4 1 6 6 4 7 13 22 28 26 23 19 16 12 10 8 5 5 4 5 4 4 3 6 9 10 11 11 12 12 15 20 21 20 16 19 21 25 33 36 38 42 40 40
6 5 5 6 2 3 4 7 10 3 5 5 17 26 29 24 21 17 14 10 7 5 4 4 7 7 6 8 9 8 9 10 7 6 10 10 12 16 20 18 17 20 29 38 43 40 37 40 39
8 8 2 2 3 4 5 4 9 3 3 4 9 19 26 25 22 19 15 11 9 6 4 3 6 7 8 9 9 10 13 12 12 11 10 11 13 14 18 20 19 21 26 36 43 40 37 29 32
3 4 3 4 5 5 3 5 6 6 8 13 12 21 30 30 25 21 17 12 9 7 5 4 5 6 7 8 8 8 8 9 10 8 10 11 11 11 12 15 18 26 32 37 38 34 23 28 27
10 12 13 8 5 3 3 6 3 7 6 11 15 22 29 29 25 21 19 14 12 9 6 6 6 5 5 6 7 7 6 6 5 1 6 4 6 7 13 18 19 23 27 30 33 31 30 31 28
Wind_Direction
227 223 270 241 60 66 271 254 259 66 113 10 16 96 118 68 56 189 120 168 150 168 179 188 186 182 181 177 177 177 171 157 150 151 162 162 157 152 144 145 142 136 130 132 125 115 110 113 106
203 212 230 131 96 108 257 259 155 192 174 109 102 83 58 67 58 120 108 170 166 181 187 189 188 190 190 185 186 195 190 175 168 157 162 153 158 152 152 155 146 136 135 136 129 125 119 112 105
185 196 197 113 125 181 192 199 221 200 85 131 111 78 85 91 101 88 302 183 170 183 186 182 190 195 199 197 193 199 197 184 177 173 159 159 152 162 150 150 148 138 138 138 137 132 124 122 108
166 183 104 111 207 249 211 195 206 209 95 79 117 76 92 104 163 185 182 191 158 168 162 182 192 200 206 205 206 206 198 184 177 178 168 163 162 167 156 152 151 147 144 151 148 143 131 128 120
169 209 83 115 253 269 258 212 171 161 122 79 161 149 128 119 138 199 168 142 174 167 165 163 198 209 213 214 211 207 199 190 180 180 179 169 169 166 165 160 158 159 156 162 163 153 141 133 124
236 340 85 214 251 261 278 222 165 150 122 126 106 125 156 149 173 181 183 149 149 171 180 189 203 213 215 218 217 211 205 195 188 184 188 182 180 182 174 171 170 168 163 164 168 162 150 143 131
128 101 202 178 263 293 241 161 170 137 137 124 148 124 162 163 173 162 164 200 204 200 211 212 212 213 214 222 223 215 213 204 197 190 193 192 193 186 189 184 177 171 163 165 168 167 160 143 132
193 105 192 243 212 272 355 97 166 164 180 130 192 174 194 185 175 175 175 182 206 215 218 224 226 223 224 225 224 223 221 222 209 202 197 191 193 198 193 188 180 172 167 167 171 167 154 144 132
200 72 218 234 191 246 32 126 222 176 152 163 208 164 174 174 180 183 182 178 187 207 216 236 235 236 233 232 231 229 228 229 224 209 200 191 196 195 195 188 182 177 172 174 173 166 157 147 128
129 134 224 221 247 235 0 139 230 198 180 179 211 203 170 178 186 203 201 189 197 202 212 222 238 250 247 237 234 237 237 236 230 221 212 200 200 199 193 184 179 176 178 178 171 164 160 152 135
188 201 218 252 266 274 250 281 229 202 244 218 203 197 184 189 195 197 200 209 218 218 219 231 243 251 247 242 241 242 241 240 236 229 215 209 204 201 199 190 180 171 170 176 174 171 161 151 141
243 248 241 270 281 285 238 231 239 226 237 248 242 219 199 196 199 204 210 217 222 226 230 237 251 257 255 245 250 252 249 245 240 237 225 215 210 204 199 195 186 181 179 184 182 171 166 160 152
214 266 265 264 273 271 262 234 227 239 248 228 203 198 201 203 203 205 210 221 216 221 239 248 249 256 259 254 250 252 250 249 248 247 238 219 214 205 189 190 197 195 186 183 181 179 179 175 167
283 255 274 276 257 245 205 249 225 259 260 242 236 216 210 211 210 210 217 226 223 226 236 247 256 255 246 255 262 265 259 252 253 248 241 230 219 202 181 176 229 212 186 179 188 186 191 181 181
283 309 314 248 239 225 219 279 228 253 248 231 225 226 217 218 212 215 221 221 229 236 240 246 245 250 252 256 260 264 268 259 249 244 240 235 225 224 199 242 211 214 203 186 192 185 190 185 178
355 35 329 284 154 241 158 265 268 260 252 243 241 232 223 220 216 221 228 232 236 241 246 252 249 244 239 243 241 254 257 262 253 239 240 230 228 223 210 210 217 217 199 196 198 176 190 187 178
1 247 228 312 224 119 184 258 265 268 225 248 247 241 236 223 216 220 230 237 238 239 243 249 249 252 249 240 238 245 252 258 256 244 237 231 230 211 206 205 213 222 218 213 206 193 194 181 176
210 224 248 240 303 101 268 262 272 270 230 226 236 247 237 218 217 219 227 235 238 241 247 251 252 254 248 234 240 239 238 246 254 243 240 236 226 209 212 211 205 206 186 205 212 204 187 182 180
132 228 280 271 276 303 258 258 260 267 246 245 243 240 231 221 215 220 227 231 236 246 256 263 264 260 252 237 234 234 237 242 250 249 244 233 218 219 215 206 215 201 205 210 206 196 186 187 181
256 271 275 283 267 174 275 266 253 234 242 240 243 243 226 207 207 211 213 220 238 258 266 266 262 249 236 227 232 239 243 244 255 244 225 216 207 228 213 210 208 206 210 208 217 193 184 192 187
226 218 226 236 312 283 313 285 254 272 249 249 251 250 228 202 199 198 199 218 245 260 267 278 271 228 231 233 234 233 236 242 246 225 208 214 221 215 224 224 225 218 215 214 208 196 195 189 181
247 202 235 258 255 254 27 292 253 262 249 253 251 207 199 191 190 192 196 210 224 230 256 295 292 237 249 250 240 232 231 236 235 228 213 215 221 226 222 228 231 224 217 208 197 191 192 192 187
240 192 207 229 214 350 277 291 270 318 277 229 209 192 186 180 184 186 192 197 205 219 238 338 330 259 275 229 205 214 225 234 235 242 228 226 229 236 233 235 238 230 224 214 206 198 192 191 195
233 116 49 52 77 275 215 184 281 244 229 166 165 185 179 179 179 181 184 182 185 203 102 29 343 263 249 204 205 220 233 248 243 247 240 244 246 250 243 238 242 236 225 222 213 205 191 195 199
131 110 300 328 3 229 174 182 254 282 257 206 185 193 189 183 179 182 180 172 173 144 84 127 67 23 215 208 210 218 229 239 239 250 264 262 255 257 251 234 238 231 237 223 215 200 196 191 201
183 173 161 200 198 245 98 231 250 220 292 261 199 186 188 186 184 180 176 180 184 158 127 165 181 198 234 226 220 207 213 225 246 266 273 267 259 246 243 240 219 230 233 213 212 195 195 202 207
177 192 192 102 23 40 236 288 294 58 17 115 152 174 185 189 185 183 179 185 171 173 160 188 189 206 210 215 211 215 230 239 243 293 304 274 266 247 234 230 221 228 225 205 201 193 197 210 206
177 162 107 14 177 231 270 257 241 272 212 173 171 177 182 188 187 184 182 190 168 169 155 195 194 207 225 230 237 235 234 234 253 285 304 296 258 240 240 221 228 234 232 214 198 196 194 197 190
131 158 77 149 153 187 279 253 216 244 188 199 189 186 185 190 191 191 190 192 186 173 172 196 202 207 225 237 240 241 246 244 268 307 327 314 222 217 228 228 230 221 214 196 184 179 182 182 195
211 198 192 209 227 236 164 269 357 287 226 164 180 186 193 196 195 197 193 194 193 190 196 209 206 203 222 225 234 234 228 237 249 359 2 49 161 165 215 189 188 194 181 172 174 183 186 203 199
Height
1507 1507 1508 1508 1518 1522 1522 1510 1502 1501 1500 1498 1497 1497 1501 1503 1505 1515 1506 1507 1508 1510 1511 1513 1515 1517 1518 1519 1521 1522 1523 1523 1523 1524 1525 1525 1526 1527 1529 1530 1531 1531 1530 1531 1530 1531 1532 1532 1531
1507 1508 1509 1508 1524 1529 1522 1505 1502 1499 1497 1499 1498 1499 1502 1506 1505 1506 1507 1507 1508 1509 1510 1512 1514 1517 1518 1519 1521 1522 1523 1523 1524 1525 1525 1526 1527 1528 1529 1531 1532 1533 1533 1533 1533 1533 1533 1533 1533
1506 1508 1509 1511 1525 1523 1517 1501 1499 1496 1496 1497 1499 1501 1503 1506 1506 1506 1507 1507 1507 1509 1510 1512 1514 1516 1518 1520 1521 1522 1523 1523 1524 1525 1526 1527 1528 1528 1529 1531 1533 1534 1534 1535 1535 1535 1535 1535 1534
1507 1509 1510 1514 1516 1508 1500 1496 1496 1496 1496 1496 1499 1502 1505 1505 1505 1505 1506 1507 1508 1509 1511 1512 1514 1516 1518 1520 1522 1522 1523 1524 1525 1526 1527 1528 1529 1530 1531 1531 1533 1534 1535 1536 1537 1537 1537 1537 1537
1508 1508 1514 1517 1512 1504 1496 1493 1494 1496 1496 1497 1498 1502 1504 1504 1504 1505 1506 1507 1509 1510 1511 1513 1515 1517 1519 1521 1522 1523 1524 1525 1526 1526 1527 1529 1530 1531 1532 1533 1534 1534 1535 1536 1537 1539 1539 1539 1539
1508 1509 1519 1522 1513 1501 1496 1493 1493 1495 1496 1496 1498 1500 1503 1504 1504 1504 1506 1507 1508 1511 1512 1513 1514 1516 1519 1520 1522 1523 1524 1525 1526 1527 1528 1529 1531 1532 1533 1534 1535 1535 1535 1536 1538 1539 1540 1541 1541
1507 1514 1516 1513 1511 1504 1495 1494 1494 1495 1497 1497 1498 1501 1503 1503 1504 1505 1505 1507 1509 1510 1512 1513 1514 1516 1517 1520 1522 1523 1524 1525 1527 1527 1528 1529 1531 1532 1534 1535 1535 1536 1536 1536 1538 1540 1541 1542 1543
1506 1508 1510 1509 1509 1505 1496 1495 1495 1496 1498 1498 1498 1500 1501 1501 1503 1504 1505 1507 1509 1509 1511 1512 1514 1516 1517 1518 1521 1523 1524 1526 1526 1527 1527 1529 1530 1532 1533 1535 1536 1537 1537 1538 1539 1540 1542 1543 1545
1506 1513 1516 1506 1505 1500 1496 1496 1496 1496 1497 1497 1497 1497 1498 1500 1502 1503 1505 1506 1508 1508 1509 1511 1513 1515 1516 1517 1519 1520 1522 1523 1525 1525 1526 1527 1529 1530 1532 1534 1535 1537 1538 1539 1540 1541 1542 1544 1546
1505 1516 1507 1499 1497 1497 1495 1495 1496 1496 1496 1497 1496 1496 1497 1498 1500 1503 1504 1505 1507 1507 1508 1509 1511 1513 1514 1515 1516 1518 1520 1521 1523 1524 1525 1526 1528 1529 1531 1533 1535 1536 1537 1539 1541 1542 1543 1545 1546
1505 1508 1499 1496 1495 1495 1495 1494 1494 1494 1497 1494 1494 1495 1496 1497 1499 1501 1502 1503 1504 1505 1507 1508 1509 1511 1512 1513 1514 1517 1517 1519 1521 1522 1523 1525 1526 1528 1530 1532 1533 1534 1536 1538 1540 1542 1544 1546 1547
1504 1498 1496 1494 1494 1494 1493 1492 1492 1492 1492 1492 1492 1492 1494 1495 1497 1498 1499 1500 1501 1502 1504 1506 1508 1509 1510 1511 1512 1513 1515 1516 1517 1518 1521 1523 1524 1525 1528 1531 1533 1531 1536 1537 1539 1542 1544 1546 1548
1501 1497 1495 1493 1492 1492 1492 1490 1490 1488 1487 1489 1490 1490 1492 1493 1494 1496 1496 1496 1498 1500 1501 1503 1505 1506 1507 1508 1509 1511 1512 1512 1514 1516 1518 1520 1521 1522 1526 1530 1533 1533 1534 1537 1539 1541 1542 1546 1548
1498 1497 1494 1491 1489 1489 1489 1487 1488 1481 1483 1485 1487 1487 1489 1491 1491 1492 1492 1493 1495 1497 1498 1500 1501 1503 1504 1505 1506 1507 1508 1510 1510 1512 1514 1516 1518 1520 1521 1527 1531 1532 1532 1531 1537 1540 1541 1545 1547
1497 1498 1492 1486 1484 1485 1485 1489 1484 1477 1481 1481 1482 1483 1485 1486 1488 1488 1489 1490 1492 1493 1495 1496 1498 1499 1500 1501 1502 1503 1504 1505 1505 1507 1510 1511 1513 1516 1518 1520 1527 1528 1529 1528 1534 1537 1540 1543 1546
1499 1499 1504 1484 1482 1481 1483 1490 1473 1474 1476 1477 1478 1479 1480 1482 1484 1485 1485 1486 1488 1489 1491 1492 1494 1495 1496 1497 1499 1500 1500 1500 1501 1502 1504 1506 1508 1511 1513 1515 1522 1528 1527 1528 1530 1529 1537 1541 1545
1505 1510 1504 1495 1481 1481 1483 1484 1469 1470 1471 1471 1472 1474 1474 1477 1479 1480 1481 1482 1484 1485 1487 1488 1489 1491 1492 1492 1494 1495 1496 1497 1498 1498 1499 1502 1505 1507 1512 1515 1521 1522 1524 1525 1528 1531 1536 1537 1545
1506 1508 1502 1499 1484 1482 1484 1482 1471 1468 1468 1465 1468 1469 1470 1472 1473 1475 1477 1478 1480 1481 1482 1483 1484 1485 1486 1487 1488 1490 1492 1493 1493 1493 1494 1497 1499 1505 1509 1514 1517 1518 1521 1524 1527 1529 1533 1537 1544
1494 1498 1500 1492 1483 1486 1481 1475 1470 1464 1464 1464 1463 1464 1465 1468 1471 1472 1473 1475 1476 1478 1479 1479 1479 1479 1480 1482 1483 1485 1486 1488 1488 1492 1493 1494 1497 1494 1506 1511 1514 1517 1519 1521 1525 1529 1532 1536 1542
1495 1498 1499 1491 1481 1485 1479 1470 1462 1459 1455 1452 1453 1455 1458 1462 1466 1468 1469 1472 1473 1474 1474 1474 1473 1474 1475 1477 1479 1481 1484 1485 1487 1490 1491 1492 1495 1494 1505 1508 1510 1513 1515 1517 1521 1524 1529 1536 1540
1492 1495 1495 1494 1483 1480 1480 1469 1460 1450 1447 1446 1446 1449 1452 1454 1460 1464 1467 1469 1470 1471 1471 1470 1470 1471 1472 1474 1475 1477 1479 1481 1484 1486 1487 1489 1490 1493 1500 1505 1508 1509 1512 1514 1516 1521 1525 1531 1537
1493 1481 1483 1487 1491 1498 1480 1488 1462 1449 1446 1445 1445 1445 1447 1452 1459 1464 1466 1466 1468 1469 1469 1469 1468 1469 1470 1470 1470 1473 1476 1477 1480 1484 1487 1489 1491 1494 1498 1501 1503 1504 1508 1511 1514 1517 1522 1529 1533
1480 1476 1480 1482 1487 1489 1487 1495 1460 1453 1447 1445 1446 1445 1448 1452 1457 1462 1464 1465 1466 1466 1466 1465 1466 1467 1468 1467 1470 1472 1475 1476 1478 1481 1486 1488 1491 1492 1494 1496 1498 1501 1503 1508 1509 1513 1519 1525 1532
1469 1477 1484 1489 1492 1500 1484 1488 1466 1456 1444 1443 1445 1448 1449 1452 1456 1460 1462 1463 1464 1465 1464 1465 1466 1467 1468 1469 1471 1473 1475 1477 1479 1482 1483 1484 1487 1489 1491 1493 1495 1497 1499 1502 1507 1511 1515 1522 1530
1470 1480 1511 1501 1512 1500 1481 1489 1460 1444 1440 1439 1440 1446 1450 1452 1455 1457 1459 1462 1464 1463 1464 1467 1468 1469 1469 1470 1471 1472 1474 1476 1478 1480 1481 1482 1483 1484 1487 1489 1491 1494 1495 1497 1503 1507 1514 1522 1529
1469 1473 1498 1503 1511 1500 1483 1486 1452 1436 1435 1434 1435 1441 1449 1453 1455 1456 1459 1461 1463 1462 1465 1467 1468 1470 1470 1471 1472 1472 1474 1476 1478 1478 1478 1477 1478 1480 1483 1485 1487 1490 1493 1495 1499 1506 1513 1522 1529
1464 1476 1466 1488 1494 1500 1481 1460 1438 1436 1437 1435 1436 1440 1445 1451 1454 1457 1459 1461 1461 1462 1465 1466 1468 1470 1471 1471 1471 1472 1474 1475 1476 1476 1475 1474 1474 1475 1477 1480 1483 1487 1488 1491 1496 1504 1513 1521 1527
1450 1457 1475 1486 1491 1489 1476 1468 1448 1433 1438 1440 1440 1440 1444 1450 1454 1457 1459 1461 1460 1463 1464 1466 1467 1470 1471 1471 1472 1472 1472 1474 1475 1474 1472 1471 1471 1472 1474 1477 1480 1483 1486 1488 1494 1502 1510 1518 1522
1452 1458 1463 1468 1479 1483 1480 1459 1432 1428 1429 1434 1436 1438 1441 1446 1452 1455 1458 1461 1462 1464 1465 1467 1468 1469 1471 1471 1471 1472 1472 1473 1472 1472 1470 1466 1466 1469 1472 1474 1477 1479 1483 1487 1492 1501 1509 1516 1524
1434 1440 1446 1461 1473 1478 1478 1459 1428 1426 1423 1428 1435 1437 1442 1446 1450 1455 1457 1460 1462 1463 1465 1468 1468 1469 1471 1471 1471 1471 1472 1472 1473 1473 1470 1466 1467 1470 1471 1474 1477 1481 1486 1490 1497 1503 1508 1516 1521